Location: Branche des Alpilles
(43.6087°N, 4.6976°E)
Time: 18:26:14
(UTC+00:00)

X-37B - Visible Passes

Search period start: 16 April 2021 00:00
Search period end: 26 April 2021 00:00
Orbit: 380 x 394 km, 45.0° (Epoch: 07 April)

Date Brightness Start Highest point End Pass type
(mag) Time Alt. Az. Time Alt. Az. Time Alt. Az.
16 Apr 1.6 03:35:58 25° SSW 03:37:14 36° SSE 03:40:12 10° E visible
17 Apr 2.9 02:40:06 19° ESE 02:40:06 19° ESE 02:41:34 10° E visible
17 Apr 0.6 04:12:23 11° WSW 04:15:23 85° SSE 04:18:34 10° ENE visible
18 Apr 0.8 03:16:28 48° SSW 03:17:02 58° SSE 03:20:11 10° E visible
19 Apr 3.0 02:20:32 19° E 02:20:32 19° E 02:21:43 10° E visible
19 Apr 0.7 03:52:48 16° W 03:55:18 74° N 03:58:28 10° ENE visible
20 Apr 0.4 02:56:51 85° SSW 02:56:54 86° SSE 03:00:06 10° ENE visible
21 Apr 3.3 02:00:53 16° E 02:00:53 16° E 02:01:43 10° E visible
21 Apr 0.9 03:33:10 20° W 03:35:13 65° N 03:38:24 10° E visible
22 Apr 1.0 02:37:13 61° NE 02:37:13 61° NE 02:40:00 10° ENE visible
22 Apr 0.7 04:10:22 10° WNW 04:13:34 75° N 04:16:45 10° E visible
23 Apr 3.7 01:41:18 12° ENE 01:41:18 12° ENE 01:41:37 10° ENE visible
23 Apr 0.9 03:13:35 26° WNW 03:15:10 66° N 03:18:20 10° E visible
24 Apr 1.9 02:17:43 39° ENE 02:17:43 39° ENE 02:19:55 10° E visible
24 Apr 0.5 03:50:16 10° WNW 03:53:29 84° SSW 03:56:40 10° ESE visible
25 Apr 0.7 02:54:14 45° WNW 02:55:05 75° N 02:58:17 10° E visible
